Terminal Aerodrome Forecast
Issued by NWS

Home | Current Version | Previous Version | Text Only | Print | Product List | Glossary On
Versions: 1 2 3 4 5 6 7 8 9 10 11 12 13 14
000
FTUS43 KDLH 201900 AAA
TAFBRD
TAF AMD
KBRD 201924Z 2019/2118 35009KT P6SM SCT022
     FM210000 VRB03KT P6SM SKC
     FM211700 14010KT P6SM SCT035=

USA.gov is the U.S. government's official web portal to all federal, state and local government web resources and services.